Niamtougou International Airport

Jump to: basic info | weather | frequencies | runways | comments

Related pages: nearby airports | nearby navaids | notams | map

Basic information (top)

Codes: LRL DXNG
Location: lon 9.767330, lat 1.091250, elev 1,515 ft / 462 m msl
Status: medium_airport
Scheduled airline service: no
Links: Wikipedia Mobile

Weather (top)

Current conditions (rec'd 2015/02/28 12:00Z):

DXNG 281200Z 08008KT 040V150 9000 NSC 32/M06 Q1016 NOSIG

Airport forecast (rec'd 2015/02/28 12:24Z):

TAF TAF DXNG 281113Z 2812/0112 05006G16KT 8000 NSC

Frequencies (top)

Verify before use: may be inaccurate or out of date.

A/G: 122.6 MHz (A/G VOICE RDO)
AFIS: 658.6 MHz (AFIS)
TWR: 118.3 MHz (TWR)

Runways (top)

03/21: 8,202 x 148 ft (2,500 x 45 m) — paved — lighted

Latest comments (top)

No comments yet for Niamtougou International Airport

More... (top)

See also NOTAMs and nearby airports and navaids, or visit the Niamtougou International Airport page at the main OurAirports website..